EW6709 Weather Reports


time (UTC)temp
C
wind
direction
speed
KPH
gust
KPH
rain 1hr
cm
rain 24hr
cm
rain mn
cm
humidity
%
barometer
mb
20260906131558 23 71 0.0 3.2 0.00 0.08 0.03 79 1013.4
20260906130103 23 74 0.0 8.0 0.00 0.08 0.03 75 1013.3
20260906124550 22 88 1.6 12.9 0.00 0.08 0.03 74 1013.2
20260906123049 22 80 0.0 1.6 0.00 0.08 0.03 73 1013.3
20260906121550 22 34 0.0 0.0 0.00 0.08 0.03 73 1013.2
20260906120046 22 63 0.0 1.6 0.00 0.08 0.03 73 1013.1
20260906114542 22 106 0.0 0.0 0.00 0.08 0.03 73 1013.1
20260906113041 22 204 0.0 0.0 0.00 0.08 0.03 73 1012.8
20260906111540 22 204 0.0 0.0 0.00 0.08 0.03 73 1012.7
20260906110037 22 204 0.0 0.0 0.00 0.08 0.03 73 1012.4
20260906104535 22 204 0.0 0.0 0.00 0.08 0.03 73 1012.3
20260906103034 22 204 0.0 0.0 0.00 0.08 0.03 74 1012.2
20260906101533 22 204 0.0 0.0 0.00 0.08 0.03 74 1012.2
20260906100038 22 204 0.0 0.0 0.00 0.08 0.03 74 1012.0
20260906094531 22 204 0.0 0.0 0.00 0.08 0.03 74 1011.7
20260906093044 22 204 0.0 0.0 0.00 0.08 0.03 74 1011.4
20260906091529 21 204 0.0 0.0 0.00 0.08 0.03 74 1011.3
20260906090029 21 204 0.0 0.0 0.00 0.08 0.03 74 1011.3
20260906084527 21 204 0.0 0.0 0.00 0.08 0.03 75 1011.1
20260906083026 21 204 0.0 0.0 0.00 0.08 0.03 75 1011.1
20260906081543 21 204 0.0 0.0 0.00 0.08 0.03 76 1011.1
20260906080024 21 204 0.0 0.0 0.00 0.08 0.03 76 1010.7
20260906074522 21 204 0.0 0.0 0.00 0.08 0.03 76 1010.6
20260906073036 21 204 0.0 0.0 0.00 0.08 0.03 76 1010.5
20260906071520 21 204 0.0 0.0 0.03 0.08 0.03 76 1010.5
20260906070024 21 204 0.0 0.0 0.03 0.08 0.03 76 1010.7
20260906064518 21 204 0.0 0.0 0.03 0.08 0.03 76 1010.7
20260906063014 21 204 0.0 0.0 0.03 0.08 0.03 76 1011.0
20260906061512 21 204 0.0 0.0 0.00 0.05 0.00 76 1010.8
20260906060011 21 204 0.0 0.0 0.00 0.05 0.00 76 1010.9
20260906054509 21 204 0.0 0.0 0.00 0.05 0.00 76 1011.3
20260906053007 21 204 0.0 0.0 0.00 0.05 0.00 77 1011.4
20260906051503 21 204 0.0 0.0 0.00 0.05 0.00 77 1011.6
20260906050002 22 204 0.0 0.0 0.00 0.05 0.00 77 1011.7
20260906044559 22 204 0.0 0.0 0.00 0.05 0.00 77 1011.7
20260906043109 22 204 0.0 0.0 0.00 0.05 0.00 77 1011.9
20260906041555 22 204 0.0 0.0 0.00 0.05 0.00 77 1012.0
20260906040111 22 204 0.0 0.0 0.00 0.05 0.00 77 1012.0
20260906034552 22 204 0.0 0.0 0.00 0.05 0.05 77 1012.0
20260906033052 22 204 0.0 0.0 0.00 0.05 0.05 77 1012.1
20260906031551 22 204 0.0 0.0 0.00 0.05 0.05 77 1012.0
20260906030055 22 204 0.0 0.0 0.00 0.05 0.05 77 1011.7
20260906024549 22 204 0.0 0.0 0.00 0.05 0.05 77 1011.5
20260906023104 22 204 0.0 0.0 0.00 0.05 0.05 78 1011.7
20260906021549 22 204 0.0 0.0 0.00 0.05 0.05 78 1011.6
20260906020048 22 204 0.0 0.0 0.00 0.05 0.05 78 1011.4
20260906014559 22 204 0.0 0.0 0.00 0.05 0.05 78 1011.5
20260906013047 23 204 0.0 0.0 0.00 0.05 0.05 78 1011.5
20260906011554 23 204 0.0 0.0 0.00 0.05 0.05 78 1011.3
20260906010047 23 204 0.0 0.0 0.00 0.05 0.05 78 1011.2
20260906004546 23 204 0.0 0.0 0.00 0.05 0.05 78 1011.2
20260906003051 23 204 0.0 0.0 0.00 0.05 0.05 78 1011.0
20260906001545 23 204 0.0 0.0 0.00 0.05 0.05 79 1011.0
20260906000047 24 204 0.0 0.0 0.00 0.05 0.05 78 1010.8
20260905234553 24 204 0.0 0.0 0.00 0.05 0.05 79 1010.6
20260905233044 24 204 0.0 0.0 0.00 0.05 0.05 79 1010.3
20260905231543 24 204 0.0 0.0 0.00 0.05 0.05 78 1010.1
20260905230044 24 88 0.0 0.0 0.00 0.05 0.05 78 1009.8
20260905224548 24 92 0.0 0.0 0.00 0.05 0.05 78 1009.4
20260905223041 24 92 0.0 0.0 0.00 0.05 0.05 78 1009.4
20260905221542 24 92 0.0 0.0 0.00 0.05 0.05 79 1010.1
20260905220040 24 92 0.0 0.0 0.00 0.05 0.05 79 1010.2
20260905214539 24 92 0.0 0.0 0.03 0.05 0.05 79 1010.2
20260905213039 24 92 0.0 0.0 0.03 0.05 0.05 79 1009.7
20260905211538 24 92 0.0 0.0 0.03 0.05 0.05 80 1009.7
20260905210038 24 92 0.0 0.0 0.05 0.05 0.05 80 1009.7
20260905204538 25 92 0.0 0.0 0.03 0.03 0.03 80 1009.6
20260905203037 26 92 0.0 0.0 0.03 0.03 0.03 78 1009.5
20260905201538 27 70 0.0 8.0 0.03 0.03 0.03 72 1009.3
20260905200046 28 118 0.0 17.7 0.00 0.00 0.00 67 1009.9
20260905194535 30 130 1.6 19.3 0.00 0.00 0.00 62 1010.4
20260905193035 33 15 0.0 16.1 0.00 0.00 0.00 55 1009.9
20260905191538 34 200 0.0 1.6 0.00 0.00 0.00 53 1009.0
20260905190046 35 207 0.0 4.8 0.00 0.00 0.00 52 1008.8
20260905184543 35 66 0.0 6.4 0.00 0.00 0.00 48 1009.0
20260905183032 35 42 0.0 14.5 0.00 0.00 0.00 50 1009.1
20260905181531 35 231 3.2 11.3 0.00 0.00 0.00 48 1009.5
20260905180026 35 136 0.0 3.2 0.00 0.00 0.00 51 1009.8
20260905174522 35 254 0.0 9.7 0.00 0.00 0.00 54 1010.3
20260905173022 35 88 0.0 6.4 0.00 0.00 0.00 52 1010.7
20260905171517 35 199 0.0 6.4 0.00 0.00 0.00 53 1010.8
20260905170013 34 303 0.0 4.8 0.00 0.00 0.00 55 1011.2
20260905164509 33 192 0.0 6.4 0.00 0.00 0.00 57 1011.3
20260905163010 33 209 1.6 8.0 0.00 0.00 0.00 58 1011.4
20260905161504 33 113 0.0 6.4 0.00 0.00 0.00 58 1011.7
20260905160122 32 231 0.0 6.4 0.00 0.00 0.00 63 1011.9
20260905154557 32 252 0.0 1.6 0.00 0.00 0.00 62 1012.2
20260905153101 32 241 0.0 3.2 0.00 0.00 0.00 65 1012.4
20260905151550 31 252 0.0 0.0 0.00 0.00 0.00 69 1012.5
20260905150047 31 232 0.0 8.0 0.00 0.00 0.00 69 1012.5
20260905144547 30 210 0.0 6.4 0.00 0.00 0.00 71 1012.5
20260905143040 30 215 0.0 6.4 0.00 0.00 0.00 72 1012.5
20260905141536 29 240 0.0 3.2 0.00 0.00 0.00 73 1012.4
20260905140032 28 208 0.0 3.2 0.00 0.00 0.00 75 1012.3
20260905134529 28 219 0.0 0.0 0.00 0.00 0.00 76 1012.3
20260905133031 27 268 0.0 1.6 0.00 0.00 0.00 79 1012.4